Location: Krasnoyarskiy Pitomnik
(51.1333°N, 71.6167°E)
Time: 21:54:34
(UTC+00:00)

A-11 Canister half - Pass Details

Date: 26 April 2024
Orbit: 1525 x 1683 km, 47.3° (Epoch: 19 May)

Event Time Altitude Azimuth Distance (km) Brightness Sun altitude
Rises 22:05:52 0° 199° (SSW) 4,806 - -14.7°
Exits shadow 22:09:09 - 190° (S) 3,937 10.7 -14.3°
Reaches altitude 10° 22:09:31 10° 188° (S) 3,847 10.6 -14.3°
Maximum altitude 22:17:21 28° 135° (SE) 2,744 10.3 -13.4°
Drops below altitude 10° 22:25:19 10° 82° (E) 3,938 12.0 -12.5°
Sets 22:29:05 0° 72° (ENE) 4,938 13.0 -12.0°
